Temperature
11 11 11 11 11 11 11 11 11 11 11 11 11 11 11 11 11 11 11 10 10 10 10 10 10 10 10 10 9 10 9 9 9 9 9 9 9 9 9 9 9 9 9
10 11 11 11 11 11 11 11 11 11 11 11 11 11 11 11 11 10 10 10 10 10 10 10 9 9 9 9 9 9 9 9 9 9 9 9 9 9 9 9 9 9 9
10 10 10 10 10 10 10 10 10 10 10 10 10 10 10 10 10 10 10 10 10 10 10 9 9 9 9 9 9 9 9 9 9 9 8 8 8 8 8 8 8 8 8
9 9 9 10 10 10 10 10 10 10 10 10 10 10 10 10 10 10 9 9 9 9 9 9 9 9 8 8 8 8 8 8 8 8 8 8 8 8 8 8 8 8 8
9 9 9 9 9 9 9 9 9 9 9 9 9 10 9 9 9 9 9 9 9 9 9 9 9 8 8 8 8 8 8 8 8 8 8 8 7 7 7 7 7 7 7
8 8 8 8 8 8 9 9 9 9 8 9 9 9 9 9 9 9 9 9 8 8 8 8 8 8 8 8 8 7 7 7 7 7 7 7 7 7 7 7 7 7 7
7 8 8 8 8 8 8 8 8 8 8 8 8 8 8 8 8 8 8 8 8 8 8 8 8 8 7 7 7 7 7 7 7 7 7 7 6 7 7 7 7 7 7
7 7 7 7 7 7 7 7 7 7 7 7 7 6 7 7 8 8 8 8 8 7 7 7 7 7 7 7 7 7 7 7 6 6 6 6 6 6 6 6 6 6 6
6 6 6 6 7 6 7 7 7 7 6 6 6 6 6 6 6 7 7 7 7 7 7 7 7 7 7 7 7 7 7 6 6 6 6 6 6 6 6 6 6 6 6
6 6 6 6 6 6 6 6 6 6 6 6 6 6 5 5 5 5 6 6 6 6 6 6 6 6 6 6 6 6 6 6 6 6 5 5 5 5 5 5 5 5 5
6 5 5 5 5 5 5 5 5 5 5 5 5 5 5 5 5 5 5 5 6 6 6 6 6 6 6 6 6 6 6 6 5 5 5 5 5 5 5 5 5 5 5
5 5 5 5 5 5 5 5 5 5 5 5 5 5 5 5 5 5 5 5 5 5 5 5 5 5 5 5 5 5 5 5 5 5 5 5 4 4 4 4 4 4 4
5 5 4 4 4 4 4 4 4 4 4 4 4 4 4 4 4 4 4 4 4 4 5 5 5 5 5 5 5 5 5 5 4 4 4 4 4 4 4 4 4 4 4
4 4 4 4 4 4 4 4 4 4 4 4 4 4 4 4 4 4 4 3 3 3 4 4 4 4 4 4 4 4 4 4 4 4 4 4 4 3 3 3 3 3 3
3 3 4 4 4 3 3 3 3 3 3 3 4 4 4 4 4 3 3 3 3 3 3 3 3 4 4 4 3 3 4 3 3 3 3 3 3 3 3 3 3 3 3
3 3 3 3 3 3 3 3 3 3 3 3 3 3 3 3 3 3 3 3 3 2 2 3 3 3 3 3 3 3 3 3 3 3 3 3 2 2 2 2 2 2 2
2 2 2 3 3 3 3 2 3 3 3 3 3 3 3 3 3 3 3 2 2 2 2 2 2 2 2 2 2 3 3 3 3 2 2 2 2 2 2 2 2 2 2
2 2 2 2 2 2 2 2 2 2 2 2 2 2 2 2 2 2 2 2 2 2 2 2 2 2 2 2 2 2 2 2 2 2 2 2 2 1 1 1 1 1 1
1 1 1 1 1 1 1 1 2 2 1 1 2 2 2 2 2 2 2 2 2 1 1 1 1 1 1 1 1 1 2 2 2 1 1 1 1 1 1 1 1 1 1
1 1 1 1 1 1 1 1 1 1 1 1 1 1 1 1 1 1 1 1 1 1 1 1 0 0 1 1 1 1 1 1 1 1 1 1 1 1 1 1 1 1 1
0 0 0 0 0 0 0 0 0 0 1 1 1 1 1 1 1 1 1 1 1 0 0 0 -0 -0 0 0 0 0 0 1 1 1 1 1 1 1 0 1 1 0 0
-0 -0 -0 -0 -0 -1 -0 -0 -0 -0 0 0 0 0 0 0 0 0 0 0 0 0 0 -0 -0 -0 -0 -0 -0 -0 -0 -0 -0 -0 -0 0 0 0 0 0 0 -0 -0
-1 -1 -1 -1 -1 -1 -1 -1 -1 -0 -0 -0 -0 0 0 0 -0 0 -0 0 -0 -0 -0 -0 -0 -1 -1 -1 -1 -1 -1 -1 -1 -1 -1 -0 -0 -0 -0 -0 -0 -1 -1
-1 -1 -1 -1 -1 -1 -1 -1 -1 -1 -1 -1 -1 -1 -0 -0 -0 -0 -0 -0 -0 -1 -1 -1 -1 -1 -1 -1 -1 -1 -1 -1 -1 -1 -1 -1 -1 -1 -1 -0 -1 -1 -1
-2 -2 -2 -1 -1 -1 -2 -1 -1 -1 -1 -1 -1 -1 -1 -1 -1 -1 -1 -1 -1 -1 -1 -1 -1 -1 -1 -1 -1 -1 -1 -2 -2 -2 -2 -2 -2 -1 -1 -1 -1 -1 -1
-2 -2 -2 -2 -2 -2 -2 -2 -2 -2 -2 -2 -2 -2 -2 -2 -1 -2 -2 -2 -2 -2 -2 -2 -2 -2 -2 -2 -2 -2 -2 -2 -2 -2 -2 -2 -2 -2 -2 -1 -1 -1 -1
Wind_Speed
1 1 1 2 2 1 1 1 1 1 1 2 1 1 2 2 2 2 3 4 4 4 3 3 4 4 4 5 5 5 5 5 5 5 6 6 7 6 7 7 7 8 8
1 1 1 1 1 1 1 1 1 1 2 1 1 2 2 2 2 3 3 4 4 5 5 5 5 5 6 6 6 6 5 5 5 6 6 7 7 7 7 7 8 8 9
1 1 1 1 1 1 1 1 1 1 1 1 2 2 2 2 2 3 3 3 4 5 6 6 6 6 6 6 6 6 6 6 6 7 7 7 8 8 8 9 9 9 10
1 1 1 2 2 1 1 1 1 1 2 2 2 2 2 2 3 3 3 3 4 4 5 6 6 6 7 8 8 7 7 8 8 8 8 8 9 10 10 10 10 10 11
2 1 2 2 2 1 1 2 1 2 2 2 2 2 2 2 3 3 3 3 4 4 5 6 6 7 7 8 8 8 8 9 9 9 9 9 10 10 11 11 11 12 12
3 2 2 2 1 1 2 2 3 2 2 2 2 2 3 3 3 3 3 2 3 4 4 4 5 6 7 8 9 9 9 10 10 10 10 10 10 10 11 12 12 12 13
3 3 2 2 2 2 3 3 3 2 2 1 0 2 3 2 3 3 2 3 3 3 3 4 4 5 6 8 9 10 10 11 11 11 11 12 12 12 13 13 13 14 14
4 3 3 3 2 3 3 3 2 2 1 1 1 0 2 2 2 3 3 3 3 2 3 4 4 5 5 6 7 9 10 11 12 12 12 13 13 14 14 14 14 14 14
4 4 4 3 3 3 4 4 3 3 3 2 2 2 1 3 3 2 2 3 3 3 3 3 4 5 6 5 6 8 10 11 12 13 12 13 13 13 14 14 14 14 13
5 4 4 3 4 4 4 4 4 3 3 3 2 2 2 2 2 2 3 2 3 4 4 4 4 4 5 5 6 8 9 11 12 13 13 14 14 14 14 14 14 13 13
4 5 4 4 4 4 4 4 4 4 4 4 3 2 2 1 2 3 4 4 3 3 3 4 3 4 5 6 6 8 9 11 12 13 13 13 14 14 14 14 13 13 13
3 4 5 4 4 4 5 5 5 5 5 5 4 3 3 3 3 3 4 5 4 3 3 3 3 3 4 5 6 8 9 10 11 12 12 13 13 14 14 13 13 13 13
4 5 4 4 4 5 5 4 5 5 5 5 6 5 4 4 3 3 4 4 5 4 2 3 3 3 3 4 6 8 8 9 10 11 12 12 12 12 12 12 12 12 12
5 5 5 5 5 5 5 4 4 5 5 5 6 5 4 4 4 4 3 3 4 4 3 4 3 3 3 4 6 7 7 9 9 10 10 10 11 11 11 11 11 11 12
4 5 4 5 4 4 4 4 4 4 4 5 5 5 5 4 4 4 3 3 4 5 6 4 3 3 3 4 6 5 5 8 9 9 9 9 9 10 10 11 11 11 11
4 4 4 4 4 4 4 4 4 4 4 5 4 5 5 4 4 4 4 3 4 5 6 3 3 3 4 4 6 5 5 7 8 9 9 9 9 9 9 10 10 10 10
5 5 5 4 4 4 4 3 4 4 4 5 5 5 6 5 4 4 4 3 3 3 6 5 3 3 3 4 5 5 4 4 5 8 9 9 8 8 9 10 9 10 10
4 4 4 3 4 3 3 3 4 4 4 5 5 5 6 5 5 4 4 4 4 4 4 6 4 3 4 3 3 3 4 4 4 7 8 8 9 9 9 9 9 10 10
4 3 3 3 4 3 3 3 4 4 4 5 5 5 5 5 5 4 4 4 4 4 3 4 5 3 3 3 3 4 4 3 4 6 7 8 8 9 10 10 9 9 9
4 3 4 4 4 3 3 3 3 4 4 4 4 5 5 5 6 5 4 4 4 3 2 3 3 3 3 2 2 3 4 3 4 4 6 6 8 9 9 9 8 7 7
3 3 3 3 3 3 3 3 3 3 3 4 4 4 4 5 6 5 4 3 3 2 2 3 3 3 2 2 2 2 3 4 3 2 3 4 4 4 5 7 6 6 6
3 2 3 3 3 3 4 4 3 2 3 3 4 4 4 4 4 5 5 4 4 4 4 3 3 4 3 3 2 2 2 3 3 2 3 5 3 4 4 4 6 7 7
3 3 4 3 4 4 4 4 3 2 2 3 3 3 3 3 3 2 3 3 2 3 4 4 4 4 3 3 3 3 2 2 3 3 2 4 3 4 4 6 7 7 6
3 4 4 4 3 4 4 4 4 3 3 3 3 3 3 3 2 2 1 1 1 2 2 2 2 3 3 3 3 3 3 2 2 2 1 2 3 4 5 5 7 5 6
3 3 3 3 3 4 5 4 4 2 2 3 3 2 2 3 2 2 1 1 1 2 2 2 2 2 2 2 2 0 1 1 3 3 1 1 2 3 4 3 4 5 6
3 3 3 2 3 3 4 4 4 2 2 2 2 2 3 3 2 2 2 2 1 1 1 2 2 3 2 2 3 1 1 1 2 2 1 1 1 2 2 2 3 5 6
Wind_Direction
32 21 17 14 8 13 352 326 313 290 285 288 285 276 276 270 251 234 230 219 215 220 235 247 246 240 238 238 244 249 248 251 259 265 271 277 279 278 278 279 283 284 282
39 5 342 341 337 327 302 281 280 272 257 266 260 258 247 260 253 229 223 219 216 220 229 238 248 252 249 246 247 251 251 256 265 269 269 273 275 274 276 278 279 280 283
32 2 278 264 290 303 307 306 295 290 268 253 245 254 251 245 245 237 222 219 222 222 227 236 245 249 249 250 253 255 257 259 263 267 269 272 273 273 272 274 276 276 279
290 317 254 253 282 298 300 257 253 260 264 252 246 248 249 247 236 235 221 216 218 228 233 238 243 247 252 253 255 256 256 259 263 266 268 271 274 273 272 273 275 276 278
261 262 264 275 295 280 255 256 265 245 261 264 258 255 251 242 236 235 226 229 226 229 229 237 241 246 254 258 261 260 259 260 262 264 268 272 274 276 275 274 273 276 276
258 243 254 278 270 239 253 251 251 255 250 254 281 277 262 253 239 224 232 238 235 234 235 238 241 250 254 258 264 263 261 261 263 263 266 267 271 275 278 276 274 275 275
268 243 238 243 248 236 246 241 231 244 252 264 311 306 294 266 243 235 238 233 231 235 235 237 240 247 255 260 265 267 267 265 266 266 267 268 271 274 276 278 277 275 276
272 260 237 231 237 245 248 249 232 225 243 202 171 306 296 300 281 262 247 231 238 240 242 247 247 246 248 255 265 271 270 273 272 270 270 271 272 274 276 279 280 277 277
270 262 250 242 237 235 242 241 231 217 226 234 196 191 204 247 295 281 259 248 247 244 249 251 243 241 246 253 265 271 273 276 275 275 276 275 273 275 277 278 281 278 278
273 267 256 247 240 236 243 247 237 227 218 231 233 218 221 217 239 283 285 274 264 258 255 267 258 256 253 253 265 274 276 278 278 278 280 279 277 277 277 276 278 276 277
277 272 261 252 245 243 241 242 245 238 225 223 222 229 243 265 242 248 273 283 287 270 263 256 250 261 262 257 261 266 275 276 276 278 279 280 279 278 277 276 276 276 277
271 269 264 253 249 244 242 240 238 241 234 232 232 227 224 225 234 236 259 274 278 283 280 261 254 259 269 264 265 272 274 276 279 280 282 283 283 282 282 277 276 276 278
272 266 259 251 250 249 246 242 240 243 239 236 236 238 233 234 228 237 257 278 286 290 282 281 259 262 277 279 275 279 274 275 277 279 281 282 282 286 289 285 280 279 281
261 262 253 252 255 256 256 245 243 244 242 238 240 238 239 237 229 231 238 256 283 285 277 269 284 263 276 276 274 285 284 277 278 279 281 283 282 284 287 288 287 285 287
264 259 255 255 254 254 253 245 243 245 241 241 242 239 241 238 231 234 230 229 240 268 273 258 266 276 278 282 284 287 286 284 286 285 283 283 285 286 285 287 287 287 288
264 258 260 259 256 253 253 247 246 243 242 246 239 233 235 239 235 232 230 232 230 243 266 264 258 283 294 300 297 299 286 291 291 287 283 282 284 286 288 287 286 286 287
262 256 256 260 262 259 253 245 247 247 243 246 241 231 235 236 235 236 230 229 238 239 261 281 279 288 286 288 303 304 294 292 293 292 288 282 284 287 288 288 287 286 286
261 259 256 258 263 264 256 245 253 253 245 242 240 236 238 238 235 236 230 229 236 236 246 272 286 282 281 282 289 296 299 298 297 290 291 288 288 288 287 286 286 286 286
261 265 260 256 260 263 262 259 251 256 247 243 239 236 239 234 234 234 232 233 241 250 250 260 277 286 286 296 303 308 307 304 308 305 295 290 292 291 290 291 288 285 289
250 254 259 257 256 258 263 267 260 262 257 252 242 238 238 237 236 232 234 232 233 238 246 256 269 282 288 294 294 301 310 304 303 312 303 300 301 298 293 295 293 289 290
261 255 258 267 262 252 255 268 261 253 252 258 254 245 245 247 248 247 247 230 224 232 242 253 267 281 283 297 288 292 296 306 304 310 312 311 314 309 301 294 295 297 295
273 267 257 253 260 266 272 270 270 256 256 262 264 261 257 257 263 274 272 264 247 237 239 244 256 263 273 280 278 280 292 311 302 316 318 308 318 304 303 299 297 301 305
267 259 256 249 254 265 276 276 281 269 263 263 260 252 259 269 276 259 275 301 295 285 261 241 242 255 259 259 254 267 280 291 282 294 310 299 304 297 309 303 299 302 304
264 259 260 260 261 269 278 278 281 264 261 266 260 247 241 248 254 247 213 242 290 303 296 277 244 248 259 244 229 237 239 280 300 315 323 285 299 300 310 313 305 303 310
276 272 268 256 256 266 274 275 275 253 258 266 266 253 245 241 262 265 228 227 284 312 333 341 327 322 308 300 285 297 319 315 311 310 311 266 301 315 316 313 325 334 339
273 274 273 261 252 257 270 277 279 245 247 260 266 263 260 256 265 268 232 207 235 279 360 15 2 354 352 338 328 306 252 268 301 293 279 306 309 339 328 318 329 336 339
Height
1507 1507 1508 1508 1508 1508 1508 1509 1509 1509 1509 1510 1510 1511 1511 1511 1511 1512 1512 1512 1512 1512 1512 1512 1512 1511 1511 1511 1511 1510 1510 1510 1509 1509 1508 1508 1508 1508 1508 1508 1507 1507 1507
1505 1505 1505 1505 1505 1505 1505 1506 1506 1506 1507 1507 1507 1507 1508 1508 1508 1509 1509 1509 1510 1509 1509 1509 1509 1509 1509 1508 1508 1508 1507 1507 1506 1506 1505 1505 1505 1505 1505 1504 1504 1504 1503
1502 1502 1502 1502 1502 1503 1503 1503 1503 1503 1503 1504 1504 1504 1505 1505 1505 1506 1506 1506 1506 1507 1507 1506 1506 1506 1506 1506 1505 1505 1504 1504 1503 1503 1502 1502 1502 1501 1501 1500 1500 1500 1499
1499 1499 1499 1499 1499 1500 1500 1500 1500 1500 1500 1500 1500 1501 1501 1502 1502 1502 1503 1503 1503 1503 1503 1503 1503 1503 1502 1502 1502 1501 1501 1500 1500 1499 1499 1498 1498 1498 1497 1497 1496 1496 1495
1496 1496 1496 1496 1496 1496 1497 1497 1497 1497 1496 1496 1496 1497 1498 1498 1498 1499 1499 1499 1500 1500 1500 1500 1500 1499 1499 1499 1498 1498 1497 1496 1496 1496 1495 1495 1494 1494 1493 1493 1492 1492 1491
1492 1492 1492 1492 1493 1493 1493 1493 1493 1493 1493 1493 1493 1493 1494 1494 1494 1495 1495 1496 1496 1496 1496 1496 1496 1495 1495 1495 1495 1494 1493 1493 1492 1492 1491 1491 1490 1490 1489 1488 1488 1487 1486
1488 1488 1489 1489 1489 1489 1489 1490 1490 1490 1490 1490 1490 1490 1490 1490 1490 1490 1491 1491 1491 1492 1492 1492 1492 1491 1491 1491 1490 1490 1489 1488 1488 1487 1487 1486 1486 1485 1484 1484 1483 1482 1481
1485 1485 1485 1485 1485 1485 1486 1486 1486 1486 1486 1487 1487 1487 1486 1486 1485 1486 1486 1487 1487 1488 1487 1487 1487 1487 1486 1486 1485 1485 1485 1484 1483 1483 1482 1482 1481 1480 1479 1479 1478 1477 1476
1482 1481 1481 1481 1481 1482 1481 1482 1482 1482 1482 1483 1484 1485 1484 1483 1482 1481 1482 1482 1483 1483 1483 1483 1482 1482 1482 1481 1481 1480 1480 1479 1479 1478 1477 1477 1476 1475 1474 1474 1473 1472 1471
1478 1478 1477 1478 1477 1477 1477 1478 1478 1479 1479 1479 1480 1481 1482 1481 1481 1478 1478 1478 1478 1478 1478 1478 1478 1477 1477 1476 1476 1475 1475 1474 1474 1473 1472 1471 1471 1470 1469 1468 1467 1466 1465
1475 1474 1474 1473 1473 1473 1473 1474 1474 1475 1475 1475 1475 1476 1476 1477 1477 1476 1473 1473 1473 1474 1473 1473 1473 1472 1472 1471 1471 1470 1470 1469 1469 1468 1467 1466 1465 1464 1463 1462 1461 1461 1460
1471 1470 1470 1469 1469 1469 1469 1469 1470 1470 1470 1471 1471 1471 1471 1472 1471 1472 1470 1468 1467 1468 1468 1468 1468 1467 1467 1466 1466 1465 1465 1464 1463 1462 1462 1461 1460 1459 1458 1456 1456 1455 1454
1466 1466 1466 1466 1465 1465 1465 1465 1465 1465 1466 1466 1466 1467 1467 1467 1467 1467 1467 1464 1463 1462 1462 1462 1462 1462 1462 1461 1460 1460 1459 1458 1458 1457 1456 1455 1454 1453 1452 1451 1450 1449 1449
1462 1462 1462 1462 1461 1461 1461 1461 1460 1460 1461 1461 1461 1462 1462 1462 1463 1462 1462 1461 1459 1457 1457 1457 1457 1457 1456 1456 1455 1454 1453 1453 1452 1452 1451 1450 1449 1448 1447 1446 1445 1444 1443
1458 1458 1458 1457 1457 1457 1456 1456 1455 1456 1456 1456 1456 1456 1457 1457 1458 1457 1457 1457 1457 1454 1452 1451 1452 1451 1451 1450 1449 1448 1448 1447 1447 1446 1445 1444 1444 1443 1442 1441 1440 1439 1438
1454 1453 1453 1453 1452 1452 1452 1451 1451 1451 1451 1451 1451 1451 1451 1452 1452 1452 1452 1451 1452 1451 1448 1446 1447 1447 1446 1446 1445 1444 1443 1442 1441 1440 1440 1439 1438 1437 1436 1435 1434 1433 1432
1449 1448 1448 1448 1447 1447 1447 1447 1446 1446 1446 1446 1446 1446 1446 1447 1447 1446 1446 1446 1446 1446 1444 1441 1442 1442 1441 1441 1440 1438 1437 1437 1436 1435 1434 1433 1433 1432 1431 1430 1429 1428 1427
1444 1444 1443 1443 1443 1442 1442 1442 1441 1441 1441 1441 1441 1441 1441 1442 1441 1441 1441 1440 1441 1441 1440 1437 1436 1436 1436 1435 1434 1433 1432 1432 1431 1430 1429 1428 1427 1426 1425 1424 1423 1422 1422
1439 1439 1439 1438 1438 1438 1438 1437 1437 1437 1436 1436 1436 1436 1436 1436 1436 1436 1436 1435 1435 1435 1435 1434 1432 1432 1431 1430 1430 1429 1428 1427 1426 1425 1424 1423 1422 1421 1420 1419 1418 1417 1417
1435 1435 1435 1434 1434 1434 1434 1433 1433 1433 1432 1432 1432 1432 1432 1432 1431 1431 1431 1431 1431 1431 1430 1429 1428 1427 1427 1426 1425 1424 1423 1422 1421 1421 1420 1419 1418 1416 1415 1414 1414 1413 1412
1431 1431 1431 1430 1430 1430 1429 1429 1429 1429 1428 1428 1428 1428 1428 1427 1427 1427 1427 1427 1427 1426 1426 1425 1424 1423 1422 1421 1421 1420 1419 1418 1417 1416 1415 1414 1413 1412 1411 1410 1409 1408 1407
1427 1427 1427 1427 1426 1426 1426 1426 1426 1425 1424 1424 1423 1423 1424 1424 1423 1423 1423 1423 1423 1422 1422 1421 1420 1420 1419 1418 1418 1417 1416 1415 1413 1413 1412 1410 1410 1408 1407 1406 1405 1404 1403
1424 1424 1423 1423 1423 1423 1423 1423 1422 1421 1421 1420 1420 1420 1420 1420 1420 1419 1419 1419 1419 1419 1419 1418 1417 1416 1415 1415 1414 1413 1413 1412 1411 1410 1409 1406 1406 1405 1404 1403 1402 1401 1400
1420 1420 1420 1420 1420 1420 1420 1419 1419 1418 1417 1417 1417 1416 1416 1416 1416 1416 1415 1415 1415 1415 1414 1414 1413 1413 1413 1412 1411 1411 1410 1409 1408 1408 1407 1404 1403 1402 1401 1400 1399 1399 1397
1417 1417 1417 1417 1416 1416 1416 1416 1415 1415 1414 1413 1413 1413 1413 1413 1413 1412 1412 1411 1411 1411 1411 1411 1410 1410 1409 1409 1408 1408 1407 1406 1404 1404 1404 1402 1400 1399 1398 1397 1397 1396 1395
1414 1414 1414 1413 1413 1413 1413 1412 1412 1412 1411 1410 1410 1410 1410 1410 1410 1410 1409 1408 1407 1407 1407 1407 1407 1406 1406 1405 1405 1405 1404 1404 1402 1401 1401 1400 1399 1398 1396 1395 1394 1394 1392